• In Portugal
  • List of Countries
  • For 7 days
  • Water Temperature
  • Satellite Maps
  • Weather Map
  • Weather Widgets
  • user-avatar
    Login

    Hourly Weather Gjirokaster

    Today, 22 October, Monday

    Time Temperature Precipitation Wind Pressure Humidity
    00:00 +8°C° 0 mm 2 mps 652 mmHg 83%
    01:00 +8°C° 0 mm 2 mps 652 mmHg 84%
    02:00 +7°C° 0.1 mm 2 mps 651 mmHg 84%
    03:00 +7°C° 0.1 mm 3 mps 651 mmHg 84%
    04:00 +7°C° 0.1 mm 3 mps 651 mmHg 84%
    05:00 +7°C° 0.1 mm 3 mps 651 mmHg 82%
    06:00 +7°C° 0.1 mm 3 mps 651 mmHg 81%
    07:00 +8°C° 0.1 mm 3 mps 651 mmHg 80%
    08:00 +8°C° 0.1 mm 4 mps 652 mmHg 73%
    09:00 +10°C° 0.1 mm 4 mps 652 mmHg 65%
    10:00 +12°C° 0.1 mm 4 mps 653 mmHg 58%
    11:00 +12°C° 0.3 mm 4 mps 652 mmHg 59%
    12:00 +12°C° 0.3 mm 4 mps 652 mmHg 60%
    13:00 +12°C° 0.3 mm 4 mps 652 mmHg 60%
    14:00 +11°C° 1.1 mm 4 mps 651 mmHg 67%
    15:00 +10°C° 1.1 mm 4 mps 651 mmHg 73%
    16:00 +8°C° 1.1 mm 4 mps 651 mmHg 80%
    17:00 +9°C° 1.6 mm 3 mps 651 mmHg 82%
    18:00 +8°C° 1.6 mm 3 mps 651 mmHg 85%
    19:00 +8°C° 1.6 mm 3 mps 651 mmHg 88%
    20:00 +8°C° 0.8 mm 3 mps 651 mmHg 87%
    21:00 +7°C° 0.8 mm 3 mps 651 mmHg 86%
    22:00 +6°C° 0.8 mm 4 mps 651 mmHg 85%
    23:00 +7°C° 0.3 mm 3 mps 651 mmHg 84%

    Tomorrow, 23 October, Tuesday

    Time Temperature Precipitation Wind Pressure Humidity
    00:00 +7°C° 0.3 mm 3 mps 651 mmHg 84%
    01:00 +7°C° 0.3 mm 3 mps 650 mmHg 83%
    02:00 +7°C° 0.2 mm 3 mps 650 mmHg 83%
    03:00 +7°C° 0.2 mm 3 mps 650 mmHg 83%
    04:00 +7°C° 0.2 mm 3 mps 650 mmHg 82%
    05:00 +7°C° 0.1 mm 3 mps 650 mmHg 82%
    06:00 +7°C° 0.1 mm 3 mps 650 mmHg 81%
    07:00 +7°C° 0.1 mm 3 mps 650 mmHg 80%
    08:00 +8°C° 0 mm 3 mps 651 mmHg 73%
    09:00 +10°C° 0 mm 3 mps 651 mmHg 66%
    10:00 +11°C° 0 mm 3 mps 652 mmHg 59%
    11:00 +13°C° 0 mm 2 mps 652 mmHg 56%
    12:00 +13°C° 0 mm 2 mps 652 mmHg 53%
    13:00 +14°C° 0 mm 2 mps 652 mmHg 50%
    14:00 +14°C° 0 mm 2 mps 652 mmHg 52%
    15:00 +13°C° 0 mm 2 mps 651 mmHg 54%
    16:00 +13°C° 0 mm 2 mps 651 mmHg 57%
    17:00 +12°C° 0 mm 2 mps 651 mmHg 60%
    18:00 +10°C° 0 mm 2 mps 651 mmHg 63%
    19:00 +9°C° 0 mm 2 mps 651 mmHg 66%
    20:00 +8°C° 0 mm 2 mps 651 mmHg 67%
    21:00 +8°C° 0 mm 2 mps 651 mmHg 68%
    22:00 +7°C° 0 mm 2 mps 651 mmHg 69%
    23:00 +7°C° 0 mm 2 mps 651 mmHg 70%

    Day after tomorrow, 24 October, Wednesday

    Time Temperature Precipitation Wind Pressure Humidity
    00:00 +7°C° 0 mm 2 mps 650 mmHg 70%
    01:00 +6°C° 0 mm 2 mps 650 mmHg 71%
    02:00 +6°C° 0 mm 2 mps 650 mmHg 72%
    03:00 +6°C° 0 mm 2 mps 649 mmHg 72%
    04:00 +6°C° 0 mm 2 mps 649 mmHg 73%
    05:00 +6°C° 0 mm 2 mps 649 mmHg 72%
    06:00 +5°C° 0 mm 3 mps 649 mmHg 71%
    07:00 +7°C° 0 mm 3 mps 649 mmHg 70%
    08:00 +9°C° 0 mm 3 mps 650 mmHg 63%
    09:00 +11°C° 0 mm 3 mps 650 mmHg 55%
    10:00 +13°C° 0 mm 3 mps 650 mmHg 47%
    11:00 +13°C° 0 mm 4 mps 650 mmHg 45%
    12:00 +14°C° 0 mm 4 mps 650 mmHg 42%
    13:00 +15°C° 0 mm 5 mps 649 mmHg 40%
    14:00 +14°C° 0 mm 5 mps 649 mmHg 43%
    15:00 +13°C° 0 mm 5 mps 649 mmHg 46%
    16:00 +12°C° 0 mm 5 mps 648 mmHg 49%
    17:00 +10°C° 0 mm 5 mps 648 mmHg 53%
    18:00 +8°C° 0 mm 5 mps 648 mmHg 56%
    19:00 +7°C° 0 mm 4 mps 648 mmHg 59%
    20:00 +6°C° 0 mm 4 mps 648 mmHg 60%
    21:00 +6°C° 0 mm 4 mps 648 mmHg 61%
    22:00 +7°C° 0 mm 3 mps 648 mmHg 62%
    23:00 +7°C° 0 mm 3 mps 648 mmHg 66%

    25 October, Thursday

    Time Temperature Precipitation Wind Pressure Humidity
    00:00 +7°C° 0 mm 3 mps 649 mmHg 70%
    01:00 +5°C° 0 mm 3 mps 649 mmHg 75%
    02:00 +5°C° 0 mm 3 mps 649 mmHg 78%
    03:00 +5°C° 0 mm 3 mps 649 mmHg 82%
    04:00 +5°C° 0 mm 3 mps 649 mmHg 86%
    05:00 +5°C° 0 mm 4 mps 650 mmHg 86%
    06:00 +5°C° 0 mm 4 mps 650 mmHg 86%
    07:00 +5°C° 0 mm 5 mps 650 mmHg 86%
    08:00 +7°C° 0 mm 5 mps 651 mmHg 75%
    09:00 +8°C° 0 mm 4 mps 652 mmHg 65%
    10:00 +10°C° 0 mm 4 mps 652 mmHg 55%
    11:00 +11°C° 0 mm 4 mps 652 mmHg 47%
    12:00 +12°C° 0 mm 4 mps 653 mmHg 40%
    13:00 +13°C° 0 mm 4 mps 653 mmHg 32%
    14:00 +12°C° 0 mm 4 mps 653 mmHg 34%
    15:00 +11°C° 0 mm 4 mps 653 mmHg 36%
    16:00 +11°C° 0 mm 4 mps 653 mmHg 37%
    17:00 +8°C° 0 mm 4 mps 653 mmHg 38%
    18:00 +7°C° 0 mm 4 mps 653 mmHg 38%
    19:00 +5°C° 0 mm 3 mps 653 mmHg 39%
    20:00 +5°C° 0 mm 3 mps 653 mmHg 38%
    21:00 +4°C° 0 mm 3 mps 653 mmHg 38%
    22:00 +4°C° 0 mm 3 mps 653 mmHg 38%
    23:00 +4°C° 0 mm 3 mps 653 mmHg 38%

    26 October, Friday

    Time Temperature Precipitation Wind Pressure Humidity
    00:00 +4°C° 0 mm 2 mps 653 mmHg 38%
    01:00 +4°C° 0 mm 2 mps 653 mmHg 37%
    02:00 +4°C° 0 mm 2 mps 653 mmHg 36%
    03:00 +4°C° 0 mm 2 mps 653 mmHg 36%
    04:00 +4°C° 0 mm 2 mps 653 mmHg 35%
    05:00 +4°C° 0 mm 2 mps 653 mmHg 35%
    06:00 +5°C° 0 mm 2 mps 653 mmHg 36%
    07:00 +5°C° 0 mm 2 mps 654 mmHg 36%
    08:00 +7°C° 0 mm 2 mps 654 mmHg 37%
    09:00 +10°C° 0 mm 3 mps 655 mmHg 37%
    10:00 +12°C° 0 mm 3 mps 656 mmHg 37%
    11:00 +12°C° 0 mm 3 mps 655 mmHg 39%
    12:00 +13°C° 0 mm 3 mps 655 mmHg 42%
    13:00 +13°C° 0 mm 3 mps 655 mmHg 44%
    14:00 +13°C° 0 mm 3 mps 655 mmHg 49%
    15:00 +12°C° 0 mm 3 mps 655 mmHg 55%
    16:00 +12°C° 0 mm 3 mps 655 mmHg 61%
    17:00 +10°C° 0 mm 3 mps 655 mmHg 68%
    18:00 +9°C° 0 mm 3 mps 654 mmHg 75%
    19:00 +8°C° 0 mm 3 mps 654 mmHg 82%
    20:00 +8°C° 0 mm 3 mps 654 mmHg 85%
    21:00 +7°C° 0 mm 3 mps 655 mmHg 88%
    22:00 +7°C° 0 mm 3 mps 655 mmHg 91%
    23:00 +7°C° 0 mm 3 mps 655 mmHg 91%

    27 October, Saturday

    Time Temperature Precipitation Wind Pressure Humidity
    00:00 +7°C° 0 mm 3 mps 654 mmHg 92%
    01:00 +5°C° 0 mm 3 mps 654 mmHg 93%
    02:00 +5°C° 0 mm 3 mps 654 mmHg 93%
    03:00 +5°C° 0 mm 3 mps 654 mmHg 93%
    04:00 +5°C° 0 mm 3 mps 654 mmHg 93%
    05:00 +5°C° 0 mm 3 mps 654 mmHg 91%
    06:00 +5°C° 0 mm 3 mps 654 mmHg 90%
    07:00 +5°C° 0 mm 4 mps 654 mmHg 88%
    08:00 +7°C° 0 mm 4 mps 654 mmHg 78%
    09:00 +10°C° 0 mm 4 mps 655 mmHg 69%
    10:00 +12°C° 0 mm 4 mps 655 mmHg 60%
    11:00 +13°C° 0 mm 4 mps 655 mmHg 58%
    12:00 +14°C° 0 mm 5 mps 655 mmHg 56%
    13:00 +14°C° 0 mm 5 mps 655 mmHg 54%
    14:00 +13°C° 0 mm 5 mps 654 mmHg 59%
    15:00 +13°C° 0 mm 5 mps 654 mmHg 63%
    16:00 +12°C° 0 mm 5 mps 654 mmHg 67%
    17:00 +10°C° 0 mm 5 mps 653 mmHg 74%
    18:00 +8°C° 0 mm 5 mps 653 mmHg 81%
    19:00 +7°C° 0 mm 5 mps 653 mmHg 88%
    20:00 +7°C° 0.1 mm 5 mps 653 mmHg 88%
    21:00 +7°C° 0.1 mm 5 mps 653 mmHg 89%
    22:00 +7°C° 0.1 mm 5 mps 653 mmHg 89%
    23:00 +7°C° 0.1 mm 5 mps 653 mmHg 89%
    Show more